Wind_Speed
57 60 60 62 64 58 59 57 56 62 68 70 70 75 80 80 79 75 69 67 64 65 66 68 70 71 71 71 71 70 71 72 72 73 74 76 76 76 75 74 74 74 70
54 60 61 61 60 65 68 65 69 68 70 75 77 80 83 73 69 66 65 66 65 66 69 71 70 69 70 73 76 78 78 79 80 80 80 80 80 81 81 79 79 77 71
63 61 62 58 62 66 70 70 72 74 72 73 71 70 67 64 63 65 65 67 70 73 73 72 72 74 76 79 82 83 82 83 85 86 85 84 84 84 83 80 79 76 75
58 61 67 71 73 71 71 74 73 73 77 71 70 64 63 63 66 68 70 74 76 75 72 72 75 78 80 81 82 83 84 86 88 89 89 89 88 88 88 87 83 80 78
64 66 64 65 70 68 71 72 76 75 73 69 65 62 63 65 68 72 75 77 75 74 75 77 81 83 84 84 84 85 87 90 91 90 90 90 91 91 92 92 92 92 89
69 73 64 66 67 71 75 78 76 76 71 63 61 63 66 67 71 75 76 74 75 77 82 85 86 86 87 87 87 89 92 93 90 90 91 95 98 100 99 99 99 100 100
63 64 65 68 69 76 80 76 69 61 59 60 64 64 66 71 74 75 75 76 79 82 86 89 89 89 89 90 93 96 92 90 90 94 99 103 105 105 104 104 102 101 100
64 65 68 70 73 75 65 60 56 57 59 63 64 68 69 70 74 77 78 81 85 87 89 89 90 91 94 97 95 91 93 97 100 104 107 109 108 108 106 104 102 99 100
60 62 64 66 66 62 57 56 57 61 64 65 68 73 75 78 77 75 82 87 90 92 92 91 92 95 96 94 94 97 99 104 107 109 111 112 112 109 105 102 100 99 96
57 58 58 58 58 54 57 59 62 65 67 70 72 76 80 83 85 86 84 87 92 93 93 96 97 93 92 98 100 101 106 106 108 111 112 111 107 103 100 96 92 90 92
53 55 56 57 55 57 62 65 66 66 70 75 76 77 79 82 86 90 94 96 92 93 97 98 95 98 100 104 107 108 107 109 110 109 107 104 102 96 92 89 87 82 80
48 49 52 55 57 61 64 68 69 72 74 78 80 80 82 85 89 92 95 96 96 101 100 98 100 103 107 108 108 108 107 105 104 103 101 98 95 89 84 82 81 78 76
45 50 55 58 62 65 69 72 76 79 83 84 84 83 87 91 94 96 97 99 101 103 101 104 106 110 110 108 107 105 103 101 101 97 93 90 87 84 78 74 72 72 70
49 55 60 59 67 71 75 78 82 83 85 85 87 89 91 94 97 98 99 101 105 105 107 107 107 107 110 109 107 104 100 96 93 89 84 81 78 75 73 71 70 69 67
50 55 60 64 69 70 77 83 83 85 87 88 90 92 96 98 100 100 101 106 105 107 111 115 113 110 109 105 102 99 93 88 84 82 78 74 71 68 67 66 66 66 65
54 60 63 67 73 79 81 84 86 86 89 91 94 96 97 100 102 102 106 108 109 113 114 117 117 114 111 105 98 90 83 80 77 75 71 67 63 60 61 61 61 61 62
61 62 65 71 76 79 83 85 86 89 93 95 97 100 102 102 102 106 110 110 115 118 118 120 118 114 107 102 93 83 78 75 72 69 67 63 59 57 57 57 57 57 58
62 64 70 75 78 80 84 88 90 93 97 100 102 102 105 105 108 111 112 115 119 121 123 120 119 112 103 95 86 79 75 70 68 65 63 59 56 53 52 54 54 53 54
68 72 76 77 79 83 86 89 93 97 99 102 106 107 108 110 111 115 116 119 123 124 123 121 117 108 100 90 82 76 72 68 64 63 59 55 54 49 49 50 49 48 50
72 74 77 79 83 86 90 93 95 99 100 104 107 108 110 111 115 118 120 124 126 126 124 119 110 104 95 86 79 74 71 66 61 59 54 49 54 47 48 47 46 45 46
74 77 80 83 87 90 94 97 98 101 103 105 107 110 111 114 118 121 124 127 127 126 121 114 108 98 91 83 77 71 66 63 58 55 52 42 54 48 45 43 43 43 43
77 81 83 87 90 95 96 101 102 103 106 108 111 112 114 118 121 124 127 127 128 123 117 111 102 94 88 81 75 68 64 59 55 50 51 40 47 45 42 41 39 41 40
81 84 87 90 92 95 99 100 103 106 108 111 111 114 117 122 125 128 128 127 124 119 114 103 98 90 84 79 73 66 61 57 52 49 51 43 41 40 41 38 37 38 38
85 88 90 93 95 97 99 103 106 108 110 111 115 118 122 126 129 129 127 122 120 114 107 97 92 85 80 74 68 62 57 55 51 46 48 46 38 36 38 38 35 36 36
87 90 93 95 96 100 104 108 109 108 110 116 118 122 126 128 128 125 122 119 116 109 95 91 86 81 77 70 64 58 55 54 53 46 44 42 41 31 35 37 35 33 34
88 90 93 97 101 105 108 109 110 112 115 118 121 124 126 126 124 120 117 113 109 100 88 84 82 77 70 64 61 56 54 54 51 47 42 40 38 33 29 36 35 31 30
Wind_Direction
262 265 269 278 283 284 284 279 281 285 287 292 295 296 300 302 304 302 302 302 299 298 299 298 299 300 301 300 299 296 293 291 289 287 284 283 281 279 279 278 277 277 276
259 266 272 275 279 281 279 281 285 291 296 300 301 301 302 303 302 300 298 297 298 299 300 301 299 299 299 298 297 295 293 291 290 288 287 285 283 281 279 277 276 276 273
259 269 268 270 276 284 285 288 291 298 299 301 304 304 302 300 298 297 297 298 299 300 299 297 297 297 296 295 294 294 293 292 292 291 289 286 284 282 279 276 275 274 271
262 269 267 272 277 284 290 293 297 297 299 303 302 302 297 297 297 299 300 300 299 298 298 298 297 296 296 295 294 292 292 292 291 290 288 285 283 281 280 279 276 271 268
266 270 280 279 282 292 296 296 295 297 302 303 300 297 295 296 299 300 299 299 298 298 298 297 297 298 298 297 296 293 292 293 292 289 285 283 282 280 278 277 276 275 271
269 270 283 286 290 293 294 294 296 296 297 297 294 293 294 297 298 298 298 297 297 297 297 298 299 298 298 297 296 294 293 292 289 287 285 284 283 282 281 278 277 276 275
278 281 285 288 292 292 293 293 292 293 293 292 290 292 296 300 301 300 298 296 295 295 296 298 298 298 297 296 297 296 294 291 289 287 286 285 284 282 281 280 277 274 272
283 285 287 287 290 290 292 291 293 293 293 292 295 298 300 299 301 301 298 297 297 298 299 299 299 300 300 299 298 297 296 294 293 291 289 288 287 285 283 281 278 273 270
280 282 286 287 288 289 287 288 293 295 297 300 299 299 302 302 302 298 298 300 299 300 301 302 302 301 301 300 300 299 298 296 294 293 291 288 286 285 282 278 274 271 267
284 285 285 284 285 286 291 295 296 299 300 300 300 301 303 304 303 301 299 300 303 304 304 305 304 303 302 301 301 299 298 297 294 292 290 288 286 284 282 278 274 268 263
281 281 280 283 287 290 296 296 296 298 300 302 303 302 302 304 303 303 304 305 305 306 307 306 305 305 304 304 302 301 299 297 295 292 290 287 286 284 282 279 275 269 262
281 281 282 287 291 292 295 297 295 296 300 303 303 301 303 304 305 304 306 307 308 309 308 307 307 306 305 304 303 302 300 298 295 292 290 288 287 285 282 278 274 269 262
289 287 287 291 293 297 297 298 300 301 304 305 305 304 306 307 307 308 308 309 309 309 309 309 308 306 305 305 304 304 303 300 296 292 290 289 287 286 284 280 275 270 264
281 285 288 296 299 299 298 298 299 301 302 306 308 308 308 307 307 309 309 309 311 310 309 307 306 308 308 309 310 307 303 300 297 294 293 290 287 285 282 279 275 270 266
285 289 290 291 291 292 296 298 297 300 305 307 308 309 307 308 309 309 309 311 310 309 309 309 311 312 313 311 308 305 303 301 298 296 293 290 287 285 281 277 272 269 265
279 282 287 288 289 292 294 296 299 305 307 308 308 307 308 309 309 309 311 310 310 311 311 313 313 315 314 312 310 307 304 302 300 297 294 290 288 285 280 277 273 268 264
281 284 287 290 293 295 298 300 304 307 307 308 308 309 309 308 309 311 311 311 311 313 314 314 315 315 314 312 311 308 305 304 302 299 296 293 291 285 280 275 270 267 263
282 285 289 292 297 299 301 304 306 306 306 307 308 308 308 310 311 311 312 311 312 314 314 315 315 315 314 313 311 309 307 306 303 300 297 295 291 287 281 275 270 265 262
284 287 290 294 297 300 303 305 306 307 309 308 309 309 311 311 311 312 312 312 314 314 314 315 315 315 314 313 311 310 308 306 304 301 298 297 292 288 282 275 270 264 259
285 290 295 299 302 303 304 304 305 305 307 307 308 310 311 310 311 311 311 313 313 314 315 316 316 315 314 313 311 310 308 306 304 300 298 299 291 288 281 277 272 265 257
294 297 299 301 301 303 303 303 304 305 306 308 309 310 309 310 311 311 312 312 313 314 315 315 316 316 314 312 311 310 307 305 304 301 298 298 290 288 283 277 271 264 257
298 298 299 300 302 303 303 303 305 307 308 308 309 309 310 310 310 310 311 313 313 314 314 315 316 315 313 313 311 310 307 305 304 301 297 297 288 288 284 277 270 264 257
297 298 300 301 301 301 302 303 305 307 308 308 308 309 310 309 309 310 311 312 313 313 313 316 315 313 313 312 311 309 307 305 304 302 300 298 292 288 283 276 271 265 260
297 300 300 300 300 301 303 304 305 306 308 308 309 309 308 309 309 310 311 312 312 312 312 315 312 312 311 311 310 308 307 304 303 301 299 298 291 287 283 278 269 264 258
299 300 300 300 302 303 304 304 306 307 308 308 308 308 308 308 309 310 311 311 312 311 313 313 311 311 310 310 308 308 306 303 303 302 299 298 292 286 282 277 270 261 257
300 299 301 302 303 305 305 306 307 306 307 306 307 307 308 309 309 310 310 311 309 310 312 311 309 308 309 308 307 307 305 303 302 301 300 296 291 287 281 277 271 262 255
Height
10709 10706 10704 10703 10701 10701 10699 10696 10694 10690 10685 10679 10672 10666 10657 10650 10643 10637 10632 10628 10623 10618 10614 10610 10604 10598 10592 10585 10583 10580 10577 10574 10572 10569 10567 10564 10561 10559 10559 10561 10560 10561 10563
10701 10698 10695 10693 10691 10689 10688 10685 10681 10677 10671 10663 10655 10648 10641 10635 10629 10625 10622 10617 10612 10606 10601 10595 10590 10584 10577 10570 10564 10560 10555 10551 10548 10545 10543 10541 10538 10536 10535 10536 10535 10537 10540
10691 10688 10686 10682 10681 10678 10675 10672 10668 10663 10656 10649 10641 10635 10628 10622 10616 10613 10608 10604 10598 10591 10586 10580 10574 10569 10563 10556 10548 10541 10535 10530 10525 10521 10517 10514 10510 10509 10510 10510 10510 10511 10513
10682 10680 10677 10674 10670 10666 10662 10659 10655 10648 10643 10635 10628 10624 10618 10610 10604 10599 10593 10586 10580 10576 10569 10563 10557 10552 10546 10539 10532 10525 10516 10510 10504 10497 10492 10488 10487 10485 10483 10482 10485 10488 10491
10672 10669 10665 10660 10657 10653 10651 10646 10642 10634 10629 10622 10618 10613 10607 10600 10592 10586 10580 10572 10564 10556 10551 10544 10537 10532 10524 10517 10510 10503 10496 10489 10481 10475 10470 10465 10461 10459 10457 10456 10455 10456 10461
10662 10658 10654 10648 10645 10640 10637 10633 10627 10620 10616 10612 10608 10602 10595 10589 10581 10573 10565 10558 10551 10542 10533 10525 10519 10512 10502 10494 10489 10480 10473 10466 10459 10452 10445 10438 10433 10429 10428 10428 10427 10425 10424
10647 10645 10641 10637 10632 10629 10625 10619 10613 10606 10603 10601 10596 10591 10584 10573 10565 10558 10549 10542 10535 10526 10518 10507 10497 10486 10482 10474 10464 10453 10447 10439 10431 10425 10418 10411 10405 10400 10396 10394 10393 10393 10394
10636 10630 10628 10625 10621 10617 10611 10606 10599 10594 10592 10587 10580 10571 10567 10565 10553 10540 10532 10524 10514 10506 10498 10488 10475 10465 10453 10443 10439 10430 10421 10409 10401 10391 10381 10374 10368 10363 10358 10355 10354 10356 10358
10623 10621 10618 10614 10609 10605 10600 10593 10587 10582 10578 10572 10564 10554 10549 10541 10535 10533 10515 10502 10492 10483 10474 10464 10454 10442 10431 10418 10410 10401 10394 10378 10366 10354 10345 10336 10328 10323 10319 10316 10314 10315 10318
10613 10609 10606 10601 10597 10593 10587 10579 10574 10569 10563 10558 10551 10540 10529 10519 10509 10499 10499 10488 10469 10458 10449 10436 10425 10417 10408 10394 10383 10375 10357 10348 10336 10322 10308 10298 10290 10283 10278 10274 10273 10274 10278
10602 10599 10594 10589 10585 10579 10573 10567 10561 10557 10550 10541 10534 10526 10516 10504 10490 10476 10464 10454 10453 10440 10425 10411 10401 10388 10378 10367 10352 10339 10329 10315 10299 10285 10272 10260 10251 10247 10242 10238 10235 10237 10241
10592 10587 10582 10577 10573 10568 10561 10553 10548 10542 10535 10526 10517 10506 10496 10485 10474 10463 10448 10434 10423 10409 10398 10386 10376 10362 10350 10337 10324 10310 10292 10280 10263 10247 10235 10225 10217 10212 10207 10203 10201 10202 10206
10579 10574 10570 10567 10561 10553 10545 10537 10531 10521 10513 10507 10497 10487 10476 10464 10451 10440 10427 10413 10400 10386 10374 10360 10348 10334 10320 10308 10291 10276 10258 10244 10227 10214 10204 10194 10186 10179 10175 10172 10171 10170 10175
10568 10564 10559 10554 10545 10538 10529 10522 10513 10506 10497 10488 10477 10466 10455 10444 10432 10419 10407 10394 10379 10363 10347 10338 10330 10312 10292 10274 10257 10240 10224 10211 10195 10182 10174 10166 10159 10154 10150 10147 10143 10143 10148
10558 10553 10547 10542 10535 10526 10515 10505 10500 10490 10480 10470 10460 10448 10435 10423 10412 10399 10386 10370 10357 10344 10324 10303 10290 10276 10261 10246 10230 10212 10195 10180 10168 10155 10146 10139 10134 10131 10127 10124 10120 10120 10123
10547 10541 10537 10529 10520 10509 10501 10491 10482 10472 10461 10451 10440 10430 10418 10404 10390 10377 10362 10348 10332 10318 10304 10278 10260 10246 10226 10211 10199 10183 10169 10155 10143 10131 10122 10116 10113 10109 10104 10101 10099 10099 10101
10534 10530 10523 10515 10506 10495 10483 10474 10464 10454 10443 10433 10421 10407 10395 10384 10368 10355 10340 10322 10306 10289 10274 10253 10233 10217 10206 10186 10170 10158 10145 10134 10120 10110 10100 10095 10092 10087 10084 10081 10079 10080 10081
10521 10515 10509 10500 10489 10479 10467 10455 10447 10437 10425 10412 10399 10388 10372 10358 10344 10328 10312 10296 10280 10262 10244 10230 10207 10191 10176 10161 10147 10135 10122 10112 10101 10090 10081 10077 10071 10068 10065 10061 10060 10062 10064
10507 10500 10493 10485 10475 10462 10452 10442 10428 10416 10405 10390 10375 10361 10348 10334 10319 10302 10287 10270 10252 10237 10219 10203 10185 10166 10151 10137 10124 10113 10101 10093 10083 10071 10064 10059 10051 10051 10046 10043 10043 10045 10046
10493 10486 10477 10467 10455 10444 10434 10423 10412 10401 10388 10372 10355 10341 10328 10311 10295 10277 10261 10245 10228 10209 10191 10176 10160 10143 10127 10114 10104 10094 10081 10073 10065 10054 10049 10044 10032 10034 10028 10026 10026 10028 10029
10477 10468 10458 10448 10437 10427 10414 10401 10394 10380 10367 10352 10336 10320 10306 10289 10270 10252 10237 10219 10202 10184 10166 10151 10137 10121 10106 10094 10084 10074 10064 10054 10047 10038 10032 10034 10014 10016 10014 10012 10011 10010 10013
10459 10449 10441 10430 10419 10406 10395 10381 10369 10359 10345 10329 10314 10297 10281 10265 10246 10229 10213 10196 10176 10158 10143 10128 10114 10099 10085 10073 10063 10054 10045 10037 10029 10026 10017 10018 10005 10003 9999 9996 9996 9995 9998
10440 10431 10422 10412 10402 10389 10377 10364 10351 10338 10325 10307 10291 10275 10257 10238 10224 10204 10190 10173 10154 10137 10119 10107 10092 10078 10066 10054 10045 10036 10028 10020 10015 10009 10000 9999 9994 9989 9983 9983 9983 9983 9985
10423 10413 10403 10392 10382 10369 10355 10342 10328 10316 10300 10282 10266 10249 10231 10214 10195 10181 10161 10150 10130 10114 10100 10089 10071 10058 10048 10038 10028 10020 10012 10004 10000 9998 9987 9982 9981 9977 9971 9969 9970 9970 9972
10404 10394 10383 10371 10359 10345 10331 10317 10303 10291 10275 10257 10242 10223 10206 10189 10170 10155 10138 10123 10104 10089 10082 10068 10052 10040 10029 10020 10011 10005 9997 9989 9984 9982 9976 9970 9965 9966 9959 9956 9957 9959 9958
10384 10373 10361 10348 10334 10322 10305 10289 10276 10266 10253 10236 10219 10199 10181 10162 10142 10131 10113 10099 10081 10065 10061 10050 10032 10022 10014 10005 9996 9990 9983 9975 9971 9966 9963 9957 9953 9951 9951 9943 9943 9947 9947